Regional Weather Roundup
Issued by NWS

Home | Current Version | Previous Version | Graphics & Text | Print | Product List | Glossary On
Versions: 1 2 3 4 5 6 7 8 9 10 11 12 13 14 15 16 17 18 19 20 21 22 23 24 25 26 27 28 29 30 31 32 33 34 35 36 37 38 39 40 41 42 43 44 45 46 47 48 49 50
000
ASUS43 KLOT 282004
RWRIL

ILLINOIS REGIONAL WEATHER ROUNDUP
NATIONAL WEATHER SERVICE CHICAGO/ROMEOVILLE IL
300 PM CDT SUN MAY 28 2017

NOTE: "FAIR" INDICATES FEW OR NO CLOUDS BELOW 12,000 FEET WITH NO
SIGNIFICANT WEATHER AND/OR OBSTRUCTIONS TO VISIBILITY.

* THESE STATIONS ARE NOT UNDER NWS QUALITY CONTROL. THEY ALSO MAY NOT
  REPORT WEATHER SUCH AS PRECIPITATION OR FOG.

ILZ001-002-007-009-015-016-024-282100-
NORTHWEST ILLINOIS

CITY           SKY/WX    TMP DP  RH WIND       PRES   REMARKS
MOLINE         MOSUNNY   79  56  45 W16       29.77F HX  80
STERLING*      MOSUNNY   74  55  51 W10       29.77F
SAVANNA*       MOSUNNY   74  55  51 W12G17    29.76F
$$

ILZ003-004-008-010-011-017-018-282100-
NORTH CENTRAL ILLINOIS

CITY           SKY/WX    TMP DP  RH WIND       PRES   REMARKS
ROCKFORD       MOSUNNY   75  55  49 W13       29.77S
FREEPORT*      MOSUNNY   73  55  52 W13       29.77F
ROCHELLE*      SUNNY     72  56  57 W12G20    29.78S
DE KALB*       SUNNY     73  55  52 W15G22    29.77F
PERU*          MOSUNNY   73  55  51 W16       29.77F
$$

ILZ005-006-012>014-019>023-282100-
NORTHEAST ILLINOIS

CITY           SKY/WX    TMP DP  RH WIND       PRES   REMARKS
CHICAGO-OHARE  PTSUNNY   75  56  51 NW12      29.72F
CHICAGO-MIDWAY PTSUNNY   69  62  78 E8        29.73S
AURORA         SUNNY     75  56  51 W14       29.75F
LANSING*       CLOUDY    68  60  77 N14       29.74R
JOLIET*        SUNNY     75  57  52 NW9       29.74S
WAUKEGAN       MOSUNNY   67  59  75 E6        29.73R
DUPAGE AIRPORT SUNNY     74  54  49 W15       29.74S
KANKAKEE*      MOSUNNY   79  59  50 W15G22    29.73F HX  80
WHEELING       MOSUNNY   75  57  53 NW13      29.74S
MORRIS*        SUNNY     75  54  48 NW17G25   29.73F
ROMEOVILLE*    SUNNY     75  59  58 NW18      29.74F
NORTHERLY ISL    N/A     59  55  87 MISG        N/A
$$

LMZ740>746-282100-
SOUTHERN LAKE MICHIGAN

STATION/POSITION SKY/WX   TEMP    WIND        PRES    VSBY  WAVE
                          AIR SEA DIR/SP/G                  HT/PER
                          (F)     (DEG/KT/KT) (MB)    (MI)  (FT/S)
SOUTHERN BUOY              53 48   40/  6/  8 1006.9          0
WILMETTE HARBOR            56 55   CALM  /  2   N/A           1
HARRISON CRIB              57      CALM  /  1   N/A
BURNHAM HARBOR             60     350/  5/ 11   N/A
CALUMET HARBOR             58     360/  5/  6 1007.0R
BURNS HARBOR               60      70/  7/  8 1007.1F
MICHIGAN CITY              58      30/  5/  6   N/A
MICHIGAN CITY 6N           58 57  360/  2/  2   N/A           1/ 2
ST. JOSEPH                 60 60   40/  6/  8 1006.5F         1/ 3
$$

ILZ025>027-034>036-040-047-049-050-058-095>099-282100-
WEST-CENTRAL ILLINOIS

CITY           SKY/WX    TMP DP  RH WIND       PRES   REMARKS
QUINCY         MOSUNNY   78  53  41 W13       29.84S
GALESBURG*     MOSUNNY   77  55  46 W10G16    29.79F
MACOMB*        MOSUNNY   78  50  36 NW18      29.83S
JACKSONVILLE*  MOSUNNY   77  54  45 NW14G21   29.83R
PITTSFIELD*    MOSUNNY   78  55  45 W13       29.85S
$$

ILZ028>032-037-038-041>044-048-051>054-059>061-282100-
CENTRAL ILLINOIS

CITY           SKY/WX    TMP DP  RH WIND       PRES   REMARKS
PONTIAC        MOSUNNY   75  58  55 W17G23    29.77F
BLOOMINGTON    MOSUNNY   75  57  53 NW16      29.80R
DECATUR        PTSUNNY   78  59  51 W13G22    29.78R
PEORIA         MOSUNNY   77  56  48 NW9       29.79F
LACON*         SUNNY     75  55  48 NW8       29.77F
LINCOLN*       PTSUNNY   78  57  48 NW8       29.79S
SPRINGFIELD    MOSUNNY   79  56  45 NW17      29.81R HX  80
TAYLORVILLE    CLOUDY    77  59  55 NW15      29.81R
$$

ILZ033-039-045-046-055>057-062-063-282100-
EAST-CENTRAL ILLINOIS

CITY           SKY/WX    TMP DP  RH WIND       PRES   REMARKS
CHAMPAIGN      PTSUNNY   77  59  53 NW14      29.76R
RANTOUL*       CLOUDY    79  62  56 NW17G23   29.75R HX  80
MATTOON        LGT RAIN  75  63  66 W12G20    29.77S
PARIS*         CLOUDY    72  69  90 SW8       29.76S THUNDER
$$

ILZ079-100>102-282100-
SOUTHWEST ILLINOIS

CITY           SKY/WX    TMP DP  RH WIND       PRES   REMARKS
ALTON          PTSUNNY   75  63  64 W23       29.85R
BELLEVILLE     PTSUNNY   77  65  67 W12       29.86R
CAHOKIA*       PTSUNNY   76  62  62 W12G21    29.84S
SPARTA*        PTSUNNY   72  64  75 W5        29.88S
$$

ILZ064>066-069>071-074>076-080>082-084>086-088>090-092>094-282100-
SOUTH-CENTRAL ILLINOIS

CITY           SKY/WX    TMP DP  RH WIND       PRES   REMARKS
CARBONDALE     PTSUNNY   76  66  71 NW13      29.85R
CAIRO*         PTSUNNY   73  65  76 SW10      29.87S
EFFINGHAM*     CLOUDY    76  68  76 W10G16    29.82S
MARION         CLOUDY    77  68  73 W7        29.85F
MT. VERNON       N/A     71  64  78 W7        29.85R
CENTRALIA*     PTSUNNY   73  66  78 W8        29.84S
SALEM*         CLOUDY    74  64  73 W10       29.84F
$$

ILZ067-068-072-073-078-083-087-091-282100-
SOUTHEAST ILLINOIS

CITY           SKY/WX    TMP DP  RH WIND       PRES   REMARKS
LAWRENCEVILLE  PTSUNNY   79  64  60 W16       29.80R HX  81
FLORA*         CLOUDY    73  65  76 W12       29.84R
FAIRFIELD*     CLOUDY    71  65  82 W6        29.83R
HARRISBURG*    PTSUNNY   78  67  70 W10       29.84S
ROBINSON*      PTSUNNY   78  65  63 W13       29.79S HX  80
CARMI*         CLOUDY    76  65  67 W14G20    29.82S
$$

ABBREVIATIONS USED IN REMARKS
   TC - TEMPERATURE IN CELSIUS
  WCI - WIND CHILL INDEX
   HX - HEAT INDEX
  VSB - VISIBILITY
$$





USA.gov is the U.S. government's official web portal to all federal, state and local government web resources and services.